Regional Weather Roundup
Issued by NWS

Home | Current Version | Previous Version | Text Only | Print | Product List | Glossary Off
Versions: 1 2 3 4 5 6 7 8 9 10 11 12 13 14 15 16 17 18 19 20 21 22 23 24 25 26 27 28 29 30 31 32 33 34 35 36 37 38 39 40 41 42 43 44 45 46 47 48 49 50

000
ASUS45 KABQ 062310
RWRNM
NEW MEXICO REGIONAL WEATHER ROUNDUP
NATIONAL WEATHER SERVICE ALBUQUERQUE NM
400 PM MST SAT FEB 06 2016

NOTE: "FAIR" MEANS FEW OR NO CLOUDS BELOW 12,000 FEET AGL WITH NO
       SIGNIFICANT WEATHER OR OBSTRUCTIONS TO VISION.

      THIS PRODUCT IS RELEASED AS TWO VERSIONS.  ONE VERSION NEAR
      THE TOP OF THE HOUR CONTAINING PRELIMINARY DATA FROM ALBUQUERQUE
      AND OTHER STATIONS.  A FINAL VERSION WITH ADDITIONAL DATA IS
      ISSUED ABOUT 10 MINUTES AFTER THE HOUR.

NMZ501-503-504-510>518-070000-
NORTHWEST PLATEAU/NORTHCENTRAL MOUNTAINS

CITY           SKY/WX    TMP DP  RH WIND       PRES   REMARKS
FARMINGTON     SUNNY     40  17  39 W9        30.39S WCI  34
LOS ALAMOS     SUNNY     40  13  34 CALM      30.33S
SANTA FE       SUNNY     45  11  25 N9        30.30S
TAOS             N/A    N/A N/A N/A MISG        N/A
ANGEL FIRE     FAIR      33  12  42 W12G17    30.29S WCI  24

$$
NMZ402-403-502-505>509-070000-
WESTCENTRAL MOUNTAINS/SOUTHWEST MOUNTAINS

CITY           SKY/WX    TMP DP  RH WIND       PRES   REMARKS
GALLUP         SUNNY     46  12  25 N5        30.37F
GRANTS         SUNNY     50   8  18 N7        30.36S
SILVER CITY      N/A     52   0  11 S3        30.35F

$$
NMZ407-409-411-412-070000-
SOUTHERN DESERTS

CITY           SKY/WX    TMP DP  RH WIND       PRES   REMARKS
LORDSBURG      FAIR      55   5  13 SE12      30.31F
DEMING         SUNNY     55   5  13 CALM      30.33F
LAS CRUCES     SUNNY     54   3  12 N3        30.35F
HOLLOMAN AFB   SUNNY     55   0  10 W6        30.32F
ALAMOGORDO     SUNNY     55   3  12 NW9       30.33F
T OR C         SUNNY     53   3  13 S6        30.32F

$$
NMZ519>523-070000-
CENTRAL VALLEYS/CENTRAL HIGHLANDS

CITY           SKY/WX    TMP DP  RH WIND       PRES   REMARKS
ALBUQUERQUE    SUNNY     49   8  19 SW6       30.33S
MORIARTY ARPT  FAIR      48   7  18 N12       30.30R
CLINES CORNERS SUNNY     39  15  37 NW25G31   30.25R WCI  28
BELEN          FAIR      49   5  16 CALM      30.34S
SOCORRO        FAIR      51   9  18 S5        30.33F

$$
NMZ524>526-539-540-070000-
SOUTHCENTRAL MOUNTAINS

CITY           SKY/WX    TMP DP  RH WIND       PRES   REMARKS
RUIDOSO          N/A     50   0  12 N5        30.33S

$$
NMZ527>531-070000-
NORTHEAST HIGHLANDS/NORTHEAST PLAINS

CITY           SKY/WX    TMP DP  RH WIND       PRES   REMARKS
LAS VEGAS      SUNNY     51  12  21 S7        30.19F
RATON          SUNNY     51   9  18 CALM      30.16S
CLAYTON        SUNNY     53   4  13 SW13      30.17R

$$
NMZ532>537-070000-
EASTCENTRAL PLAINS

CITY           SKY/WX    TMP DP  RH WIND       PRES   REMARKS
TUCUMCARI      SUNNY     58   3  11 S9        30.16F
CANNON AFB     SUNNY     58  10  14 S12       30.19F
CLOVIS AIRPORT SUNNY     55  10  16 SW12      30.22F

$$
NMZ028-029-538-070000-
SOUTHEAST PLAINS

CITY           SKY/WX    TMP DP  RH WIND       PRES   REMARKS
ROSWELL        SUNNY     61   5  10 S12       30.24F
ARTESIA        SUNNY     61  12  15 SE17      30.24F
CARLSBAD       SUNNY     63   7  11 SE13      30.24F
HOBBS          SUNNY     59   0   9 S9        30.27F


$$



USA.gov is the U.S. government's official web portal to all federal, state and local government web resources and services.